• In Netherlands
  • List of Countries
  • For 7 days
  • Water Temperature
  • Satellite Maps
  • Weather Map
  • Weather Widgets
  • user-avatar
    Login

    Hourly Weather Hrodna

    Today, 21 July, Friday

    Time Temperature Precipitation Wind Pressure Humidity
    00:00 +14°C° 0 mm 3 mps 749 mmHg 88%
    01:00 +14°C° 0 mm 3 mps 749 mmHg 89%
    02:00 +13°C° 0 mm 3 mps 749 mmHg 89%
    03:00 +12°C° 0 mm 3 mps 749 mmHg 89%
    04:00 +13°C° 0 mm 2 mps 749 mmHg 89%
    05:00 +13°C° 0 mm 2 mps 750 mmHg 89%
    06:00 +14°C° 0 mm 2 mps 750 mmHg 85%
    07:00 +16°C° 0 mm 2 mps 750 mmHg 80%
    08:00 +18°C° 0 mm 2 mps 750 mmHg 76%
    09:00 +19°C° 0 mm 2 mps 750 mmHg 74%
    10:00 +20°C° 0 mm 2 mps 750 mmHg 71%
    11:00 +21°C° 0 mm 3 mps 750 mmHg 69%
    12:00 +22°C° 0 mm 3 mps 750 mmHg 65%
    13:00 +24°C° 0 mm 2 mps 750 mmHg 61%
    14:00 +25°C° 0 mm 2 mps 750 mmHg 57%
    15:00 +25°C° 0 mm 2 mps 750 mmHg 58%
    16:00 +25°C° 0 mm 3 mps 750 mmHg 59%
    17:00 +25°C° 0 mm 3 mps 750 mmHg 60%
    18:00 +24°C° 0.1 mm 2 mps 750 mmHg 66%
    19:00 +21°C° 0.1 mm 2 mps 750 mmHg 73%
    20:00 +20°C° 0.1 mm 2 mps 750 mmHg 79%
    21:00 +19°C° 0.1 mm 2 mps 750 mmHg 79%
    22:00 +19°C° 0.1 mm 2 mps 750 mmHg 80%
    23:00 +18°C° 0.1 mm 2 mps 750 mmHg 80%

    Tomorrow, 22 July, Saturday

    Time Temperature Precipitation Wind Pressure Humidity
    00:00 +18°C° 0 mm 2 mps 750 mmHg 81%
    01:00 +17°C° 0 mm 2 mps 750 mmHg 82%
    02:00 +17°C° 0 mm 2 mps 751 mmHg 82%
    03:00 +17°C° 0 mm 2 mps 751 mmHg 82%
    04:00 +17°C° 0 mm 2 mps 751 mmHg 83%
    05:00 +16°C° 0 mm 2 mps 751 mmHg 83%
    06:00 +18°C° 0 mm 2 mps 751 mmHg 80%
    07:00 +19°C° 0 mm 2 mps 751 mmHg 77%
    08:00 +20°C° 0 mm 2 mps 751 mmHg 74%
    09:00 +21°C° 0 mm 2 mps 751 mmHg 69%
    10:00 +24°C° 0 mm 2 mps 751 mmHg 64%
    11:00 +25°C° 0 mm 2 mps 752 mmHg 59%
    12:00 +26°C° 0 mm 2 mps 752 mmHg 57%
    13:00 +26°C° 0 mm 2 mps 751 mmHg 55%
    14:00 +27°C° 0 mm 2 mps 751 mmHg 53%
    15:00 +27°C° 0 mm 2 mps 751 mmHg 55%
    16:00 +26°C° 0 mm 2 mps 751 mmHg 57%
    17:00 +26°C° 0 mm 2 mps 751 mmHg 59%
    18:00 +25°C° 0 mm 2 mps 752 mmHg 65%
    19:00 +23°C° 0 mm 2 mps 752 mmHg 71%
    20:00 +21°C° 0 mm 2 mps 752 mmHg 77%
    21:00 +20°C° 0 mm 2 mps 752 mmHg 80%
    22:00 +19°C° 0 mm 2 mps 752 mmHg 83%
    23:00 +17°C° 0 mm 2 mps 753 mmHg 86%

    Day after tomorrow, 23 July, Sunday

    Time Temperature Precipitation Wind Pressure Humidity
    00:00 +17°C° 0 mm 2 mps 753 mmHg 87%
    01:00 +16°C° 0 mm 2 mps 753 mmHg 89%
    02:00 +16°C° 0 mm 2 mps 753 mmHg 90%
    03:00 +15°C° 0 mm 2 mps 753 mmHg 90%
    04:00 +15°C° 0 mm 2 mps 753 mmHg 91%
    05:00 +15°C° 0 mm 2 mps 753 mmHg 91%
    06:00 +16°C° 0 mm 2 mps 753 mmHg 86%
    07:00 +18°C° 0 mm 2 mps 753 mmHg 81%
    08:00 +20°C° 0 mm 2 mps 753 mmHg 76%
    09:00 +21°C° 0.2 mm 2 mps 753 mmHg 72%
    10:00 +24°C° 0.2 mm 3 mps 753 mmHg 67%
    11:00 +25°C° 0.2 mm 3 mps 752 mmHg 63%
    12:00 +26°C° 0.3 mm 3 mps 752 mmHg 63%
    13:00 +26°C° 0.3 mm 3 mps 752 mmHg 63%
    14:00 +26°C° 0.3 mm 3 mps 752 mmHg 62%
    15:00 +26°C° 0.6 mm 3 mps 752 mmHg 65%
    16:00 +26°C° 0.6 mm 3 mps 751 mmHg 67%
    17:00 +26°C° 0.6 mm 3 mps 751 mmHg 69%
    18:00 +25°C° 0.6 mm 2 mps 751 mmHg 75%
    19:00 +23°C° 0.6 mm 2 mps 751 mmHg 80%
    20:00 +21°C° 0.6 mm 2 mps 751 mmHg 86%
    21:00 +20°C° 0.3 mm 2 mps 751 mmHg 87%
    22:00 +20°C° 0.3 mm 3 mps 751 mmHg 89%
    23:00 +19°C° 0.3 mm 3 mps 751 mmHg 90%

    24 July, Monday

    Time Temperature Precipitation Wind Pressure Humidity
    00:00 +19°C° 0.4 mm 3 mps 750 mmHg 91%
    01:00 +18°C° 0.4 mm 3 mps 750 mmHg 91%
    02:00 +18°C° 0.4 mm 3 mps 750 mmHg 91%
    03:00 +18°C° 0.5 mm 3 mps 750 mmHg 92%
    04:00 +18°C° 0.5 mm 3 mps 750 mmHg 92%
    05:00 +17°C° 0.5 mm 3 mps 749 mmHg 92%
    06:00 +18°C° 0.2 mm 3 mps 749 mmHg 90%
    07:00 +19°C° 0.2 mm 3 mps 749 mmHg 88%
    08:00 +20°C° 0.2 mm 3 mps 749 mmHg 86%
    09:00 +22°C° 0.3 mm 3 mps 749 mmHg 81%
    10:00 +25°C° 0.3 mm 4 mps 749 mmHg 76%
    11:00 +26°C° 0.3 mm 4 mps 749 mmHg 72%
    12:00 +27°C° 0.8 mm 4 mps 748 mmHg 70%
    13:00 +27°C° 0.8 mm 4 mps 748 mmHg 69%
    14:00 +28°C° 0.8 mm 3 mps 748 mmHg 68%
    15:00 +28°C° 0.1 mm 3 mps 748 mmHg 67%
    16:00 +28°C° 0.1 mm 3 mps 748 mmHg 67%
    17:00 +28°C° 0.1 mm 2 mps 747 mmHg 67%
    18:00 +27°C° 0.4 mm 2 mps 747 mmHg 72%
    19:00 +25°C° 0.4 mm 2 mps 747 mmHg 77%
    20:00 +24°C° 0.4 mm 2 mps 747 mmHg 82%
    21:00 +23°C° 0.9 mm 2 mps 747 mmHg 83%
    22:00 +21°C° 0.9 mm 2 mps 747 mmHg 85%
    23:00 +21°C° 0.9 mm 2 mps 746 mmHg 86%

    25 July, Tuesday

    Time Temperature Precipitation Wind Pressure Humidity
    00:00 +20°C° 1 mm 3 mps 746 mmHg 87%
    01:00 +20°C° 1 mm 3 mps 746 mmHg 87%
    02:00 +20°C° 1 mm 3 mps 746 mmHg 88%
    03:00 +19°C° 0.5 mm 3 mps 746 mmHg 88%
    04:00 +19°C° 0.5 mm 3 mps 745 mmHg 89%
    05:00 +19°C° 0.5 mm 3 mps 745 mmHg 89%
    06:00 +19°C° 0.2 mm 4 mps 745 mmHg 87%
    07:00 +20°C° 0.2 mm 4 mps 745 mmHg 85%
    08:00 +20°C° 0.2 mm 4 mps 744 mmHg 82%
    09:00 +21°C° 0.3 mm 5 mps 744 mmHg 79%
    10:00 +22°C° 0.3 mm 5 mps 744 mmHg 76%
    11:00 +23°C° 0.3 mm 6 mps 744 mmHg 73%
    12:00 +26°C° 0.1 mm 6 mps 744 mmHg 68%
    13:00 +27°C° 0.1 mm 6 mps 744 mmHg 64%
    14:00 +28°C° 0.1 mm 6 mps 744 mmHg 59%
    15:00 +28°C° 0.5 mm 5 mps 743 mmHg 64%
    16:00 +28°C° 0.5 mm 5 mps 743 mmHg 68%
    17:00 +27°C° 0.5 mm 4 mps 743 mmHg 72%
    18:00 +26°C° 1.4 mm 4 mps 743 mmHg 78%
    19:00 +24°C° 1.4 mm 3 mps 743 mmHg 83%
    20:00 +22°C° 1.4 mm 3 mps 743 mmHg 89%
    21:00 +21°C° 0.7 mm 3 mps 743 mmHg 91%
    22:00 +21°C° 0.7 mm 3 mps 743 mmHg 93%
    23:00 +20°C° 0.7 mm 3 mps 743 mmHg 94%

    26 July, Wednesday

    Time Temperature Precipitation Wind Pressure Humidity
    00:00 +20°C° 0.5 mm 3 mps 743 mmHg 95%
    01:00 +20°C° 0.5 mm 3 mps 743 mmHg 96%
    02:00 +19°C° 0.5 mm 2 mps 743 mmHg 97%
    03:00 +19°C° 1.3 mm 3 mps 743 mmHg 97%
    04:00 +19°C° 1.3 mm 3 mps 743 mmHg 97%
    05:00 +18°C° 1.3 mm 3 mps 743 mmHg 97%
    06:00 +18°C° 2.9 mm 3 mps 743 mmHg 96%
    07:00 +18°C° 2.9 mm 4 mps 743 mmHg 95%
    08:00 +17°C° 2.9 mm 4 mps 744 mmHg 95%
    09:00 +18°C° 0.9 mm 4 mps 744 mmHg 93%
    10:00 +18°C° 0.9 mm 4 mps 745 mmHg 90%
    11:00 +18°C° 0.9 mm 4 mps 745 mmHg 88%
    12:00 +19°C° 0 mm 4 mps 745 mmHg 83%
    13:00 +21°C° 0 mm 3 mps 746 mmHg 77%
    14:00 +22°C° 0 mm 3 mps 746 mmHg 72%
    15:00 +22°C° 0 mm 3 mps 747 mmHg 72%
    16:00 +23°C° 0 mm 2 mps 747 mmHg 71%
    17:00 +23°C° 0 mm 2 mps 747 mmHg 71%
    18:00 +21°C° 0.1 mm 2 mps 747 mmHg 75%
    19:00 +20°C° 0.1 mm 2 mps 747 mmHg 80%
    20:00 +20°C° 0.1 mm 1 mps 747 mmHg 85%
    21:00 +19°C° 0 mm 1 mps 748 mmHg 88%
    22:00 +18°C° 0 mm 1 mps 748 mmHg 90%
    23:00 +16°C° 0 mm 1 mps 749 mmHg 93%
    Show more